[Date Prev][Date Next][Thread Prev][Thread Next] - [Date Index][Thread Index][Author Index]
2 Line ISS Keps 12-17
- Subject: [sarex] 2 Line ISS Keps 12-17
- From: "Dave Larsen PhD" <doc@xxxxxxxxxxx>
- Date: Fri, 16 Dec 2005 18:37:13 -0800
ISS
1 25544U 98067A 05350.73726852 .00012130 00000-0 90724-4 0 9592
2 25544 051.6455 045.3002 0010570 047.9682 088.6362 15.73112286404413
----
Via the sarex mailing list at AMSAT.ORG courtesy of AMSAT-NA.
To unsubscribe, send "unsubscribe sarex" to Majordomo@amsat.org
AMSAT Home